Tucson, AZ

4:41 PM MST on May 24, 2018 (GMT -0700)
Tucson International

Weather History for KTUS - October, 2011

Change the Weather History Date:

Wednesday, October 12, 2011

  Actual Average Record
Temperature  
Mean Temperature 74 °F 72 °F  
Max Temperature 93 °F 86 °F 99 °F (1992)
Min Temperature 55 °F 59 °F 35 °F (1924)
Degree Days  
Heating Degree Days 0 0  
Month to date heating degree days 10 0  
Since 1 July heating degree days 10 0  
Cooling Degree Days 9 8  
Month to date cooling degree days 89 116  
Year to date cooling degree days 3261 3023  
Growing Degree Days 23 (Base 50)    
Moisture  
Dew Point 32 °F    
Average Humidity 24    
Maximum Humidity 35    
Minimum Humidity 12    
Precipitation  
Precipitation 0.00 in 0.03 in 0.94 in (1932)
Month to date precipitation 0.06 0.42  
Year to date precipitation 9.23 9.62  
Snow  
Snow 0.00 in - - ()
Month to date snowfall 0.0  
Snow Depth 0.00 in    
Sea Level Pressure  
Sea Level Pressure 29.86 in    
Wind  
Wind Speed 5 mph (SE)    
Max Wind Speed 10 mph    
Max Gust Speed 17 mph    
Visibility 10 miles    
Events      
T = Trace of Precipitation, MM = Missing Value Source: NWS Daily Summary

Daily Weather History Graph

Daily Weather History Graph

Search for Another Location

Airport or City:

Astronomy

Oct. 12, 2011 Rise Set
Actual Time 6:25 AM MST 5:55 PM MST
Civil Twilight 6:00 AM MST 6:19 PM MST
Nautical Twilight 5:32 AM MST 6:47 PM MST
Astronomical Twilight 5:03 AM MST 7:16 PM MST
Moon 6:06 PM MST (10/12) 6:57 AM MST (10/12)
Length of Visible Light 12h 19m
Length of Day
11h 30m
Full, 100% of the Moon is Illuminated
Oct 12
Full
Oct 19
Last Quarter
Oct 26
New
Nov 2
First Quarter
Nov 10
Full

Hourly Weather History & Observations

Time (MST) Temp. Dew Point Humidity Pressure Visibility Wind Dir Wind Speed Gust Speed Precip Events Conditions
12:53 AM 62.1 °F 27.0 °F 26% 29.87 in 10.0 mi SE 8.1 mph - N/A   Clear
1:53 AM 60.1 °F 28.0 °F 30% 29.87 in 10.0 mi ESE 5.8 mph - N/A   Clear
2:53 AM 57.9 °F 28.9 °F 33% 29.86 in 10.0 mi SSE 4.6 mph - N/A   Clear
3:53 AM 57.0 °F 28.9 °F 34% 29.86 in 10.0 mi SE 8.1 mph - N/A   Clear
4:53 AM 55.0 °F 28.9 °F 37% 29.86 in 10.0 mi South 6.9 mph - N/A   Clear
5:53 AM 57.0 °F 28.9 °F 34% 29.86 in 10.0 mi SSE 8.1 mph - N/A   Clear
6:53 AM 57.2 °F 28.4 °F 33% 29.97 in 10.0 mi SE 5.8 mph - N/A   Clear
7:53 AM 62.1 °F 28.9 °F 29% 29.89 in 10.0 mi SSE 5.8 mph - N/A   Clear
8:53 AM 66.9 °F 28.9 °F 24% 29.90 in 10.0 mi Variable 3.5 mph - N/A   Clear
9:53 AM 73.9 °F 32.0 °F 21% 29.90 in 10.0 mi Calm Calm - N/A   Clear
10:53 AM 81.0 °F 33.1 °F 18% 29.88 in 10.0 mi North 3.5 mph - N/A   Clear
11:53 AM 86.0 °F 33.1 °F 15% 29.85 in 10.0 mi Variable 6.9 mph - N/A   Clear
12:53 PM 89.1 °F 33.1 °F 14% 29.82 in 10.0 mi Calm Calm - N/A   Clear
1:53 PM 91.0 °F 32.0 °F 12% 29.79 in 10.0 mi Variable 3.5 mph - N/A   Clear
2:53 PM 91.0 °F 32.0 °F 12% 29.78 in 10.0 mi Calm Calm - N/A   Clear
3:53 PM 91.9 °F 32.0 °F 12% 29.78 in 10.0 mi Variable 5.8 mph - N/A   Clear
4:53 PM 91.0 °F 32.0 °F 12% 29.79 in 10.0 mi North 5.8 mph - N/A   Clear
5:53 PM 86.0 °F 35.1 °F 16% 29.79 in 10.0 mi North 6.9 mph - N/A   Clear
6:53 PM 82.0 °F 36.0 °F 19% 29.81 in 10.0 mi NW 4.6 mph - N/A   Clear
7:53 PM 79.0 °F 36.0 °F 21% 29.83 in 10.0 mi Calm Calm - N/A   Clear
8:53 PM 73.9 °F 37.0 °F 26% 29.85 in 10.0 mi SSE 4.6 mph - N/A   Clear
9:53 PM 69.8 °F 35.6 °F 28% 29.97 in 10.0 mi South 5.8 mph - N/A   Clear
10:53 PM 69.8 °F 33.8 °F 27% 29.97 in 10.0 mi SE 5.8 mph - N/A   Clear
11:53 PM 64.9 °F 35.1 °F 33% 29.84 in 10.0 mi SE 6.9 mph - N/A   Clear